Regional Weather Roundup
Issued by NWS

Home | Current Version | Previous Version | Text Only | Print | Product List | Glossary On
Versions: 1 2 3 4 5 6 7 8 9 10 11 12 13 14 15 16 17 18 19 20 21 22 23 24 25 26 27 28 29 30 31 32 33 34 35 36 37 38 39 40 41 42 43 44 45 46 47 48 49 50
000
ASUS44 KOUN 291910
RWROK

WEATHER ROUNDUP FOR OKLAHOMA
NATIONAL WEATHER SERVICE NORMAN OK
200 PM CDT MON MAY 29 2017

NOTE: "FAIR" INDICATES FEW OR NO CLOUDS BELOW 12,000 FEET WITH NO
      SIGNIFICANT WEATHER AND/OR OBSTRUCTIONS TO VISIBILITY.

OKZ001>007-009>012-014-015-017-292000-
NORTHWEST OKLAHOMA AND THE PANHANDLE

CITY           SKY/WX    TMP DP  RH WIND       PRES   REMARKS
GAGE           SUNNY     84  49  29 N8        30.12F
GUYMON         SUNNY     77  44  30 VRB5      30.15F
ENID/WOODRING  MOSUNNY   90  50  25 NW12      30.03
$$

OKZ016-021>023-033>039-044-045-292000-
SOUTHWEST OKLAHOMA

CITY           SKY/WX    TMP DP  RH WIND       PRES   REMARKS
LAWTON/REGL    SUNNY     87  45  23 SE8       30.08F
LAWTON/FT SILL MOSUNNY   85  53  32 SW3       30.07F
FREDERICK      SUNNY     86  47  25 SW9       30.06F
CLINTON        SUNNY     85  36  17 VRB3      30.12F
HOBART         SUNNY     88  41  19 VRB3      30.10F
ALTUS AFB      SUNNY     86  39  18 S5        30.09F HAZE
$$

OKZ018>020-024>031-292000-
CENTRAL OKLAHOMA

CITY           SKY/WX    TMP DP  RH WIND       PRES   REMARKS
OKLAHOMA CITY  MOSUNNY   87  43  21 VRB6      30.07F
OKC/WILEY POST SUNNY     87  44  22 S6        30.07F
OKC/TINKER AFB SUNNY     85  45  24 NW6       30.06F
STILLWATER     SUNNY     88  46  23 VRB7      30.04F
GUTHRIE        SUNNY     87  46  24 NW6       30.05F
$$

OKZ008-013-054>072-292000-
NORTHEAST OKLAHOMA

CITY           SKY/WX    TMP DP  RH WIND       PRES   REMARKS
TULSA          PTSUNNY   86  56  35 W10       30.02F
TULSA/JONES    SUNNY     86  51  29 SW7       30.04F
PONCA CITY     SUNNY     87  48  25 W8        30.02F
BARTLESVILLE   SUNNY     87  52  29 SW9       30.03F
MUSKOGEE       SUNNY     85  57  38 VRB3      30.05F
$$

OKZ032-040>043-046>053-073>077-292000-
SOUTH CENTRAL/SOUTHEAST OKLAHOMA

CITY           SKY/WX    TMP DP  RH WIND       PRES   REMARKS
ARDMORE/DWNTWN SUNNY     82  45  26 S5        30.07F
MCALESTER      SUNNY     86  51  29 CALM      30.07F
$$




USA.gov is the U.S. government's official web portal to all federal, state and local government web resources and services.